Terug naar catalogus

STARLINK-35929

ActiefCommunicatieVLEO
NORAD 66625·PAYLOAD·🇺🇸 United States

Gelanceerd Nov 23, 2025 vanaf Vandenberg Space Force Base

Loading…

Volgende Passages (komende 24 uur)

TLE

VersSource: CelesTrak SupGP

Epoch: Sep 14, 2026, 22:49 UTC

1 66625C 25271J   26257.95118056  .00010312  00000+0  30465-3 0  2573
2 66625  53.1597 335.7159 0001243  76.0875 355.5109 15.34386999    19

Volg STARLINK-35929 in realtime met AllMySat

Download on the App Store